Showing default

QIANFAN-189, 69407

Orbit data source: Space-Track

QIANFAN-189, 69407 is a Chinese payload satellite in LEO that was launched on Fri, 05 Jun 2026 UTC via a CHANG ZHENG 8 launch vehicle from the Wenchang Satellite Launch Center (WSC). Payload-class satellites include a variety of spacecraft equipped with specific instruments for various scientific and technological missions. These include communications satellites like Starlink; space stations such as the ISS; scientific satellites like the Hubble; Earth observation satellites from companies like Planet Labs, Umbra, and HawkEye 360; GPS; miniature CubeSats for education and research; and military/defense satellites.

Loading next visibility...
Identifier
69407, 2026-125G
Orbit
LEO
Country
Flag of CNCN / PRC
Related business
Manufacturer
SECM?
Mission
Operational spacecraft
Bus & Motor
QIANFAN, Unknown motor
Mass
267 kg wet, ~267 kg dry
Launch date (UTC)
2026-06-05 (2 weeks ago)
Launch vehicle
CHANG ZHENG 8
Launch site
Wenchang Satellite Launch Center (WSC)
Object type
Payload
Rocket body
Debris
Shape & HBR
Unknown
Radar Cross Section
Large (>1 m²)

Expand to show TLE details & history
Last TLE update: 1 day ago

TLE from 1 day ago
0 QIANFAN-189
1 69407U 26125G   26170.72193317 -.01853945  00000-0 -10384+1 0  9994
2 69407  88.9947 280.1586 0014980 167.6028 192.5531 14.14417547  2067
Epoch: 2026-06-19T17:19Z
TLE epoch observation values (Epoch: 2026-06-19T17:19:35.025Z)
Latitude
Longitude
112.31583°
Altitude
857.903 km
Speed
7.418 km/s
True Right ascension
18h 40m 38s
True Declination
0° 00' 00"
Sunlit
Object was in full shadow at epoch
Visualization orbit readout
Latitude
Unknown
Longitude
Unknown
Altitude
Unknown
Speed
Unknown
Apparent Right ascension
Unknown
Apparent Declination
Unknown
Sunlit
N/A
Visualization observer readout
Local Sidereal Time
08:32:46
Azimuth
Unknown
Elevation
Unknown
Doppler factor
Unknown
Orbital elements
Apogee altitude
852.068 km
Perigee altitude
830.439 km
Semi-major axis
7,219.391 km
Eccentricity
0.0015
Inclination
88.9947°
RAAN
280.1586°
Arg. of periapsis
167.6028°
True anomaly
192.51586°
Mean anomaly
192.5531°
Eccentric anomaly
192.53447°
Mean motion
3.53828 °/min
Orbital period
101.74 mins
BSTAR
-1.0384
Loading maneuver chart data...
Computing Atmospheric mass density...
Loading historical data...
Loading historical data...
Loading historical data...
Loading historical data...
Loading historical data...
Loading historical data...
Loading historical data...

Documentation

Showing up to 5 results
|